FALCON 9 R/B

Satellite information

Favourite Embed

Satellite Type and Status

ROCKET BODYIN ORBIT

Key statistics

Satellite FALCON 9 R/B at a glance.

Uptime

5380

Days in orbit

Revolutions

≈ 7.3

Per day

Orbit

MEO

Medium Earth Orbit

Inclination

34.5

Latest

Satellite identification and parameters

Extended collection of information and parameters for FALCON 9 R/B.

Object identification

Identified? True

Debris? False

Object name: FALCON 9 R/B

International designator: 2010-066K

Object number (NORAD): 37253

Object ID (CCSDS): 37253

Country: UNITED STATES OF AMERICA (US)

Current information (Y/N): Y

RCS size: LARGE

Orbital parameters

Period: 196.509 minutes

Inclination: 34.5059 deg

SMA: 11196.486 km

Apoapsis: 9346.085 km

Periapsis: 290.617 km

RAAN: 67.8077 deg

Eccentricy: 0.40438883

Argument of periapsis: 47.6955 deg

Mean anomaly: 340.2265 deg

Mean motion: 7.32791008 rev/day

Mean motion (dot): 0.00013722 rev/day2

B* drag term: 0.0011774655 1/REarth

Two-line elements (TLE)

Creation date: Aug. 30, 2025, 3:38 a.m.

Reference frame: TEME

Reference center: EARTH

Epoch: Aug. 29, 2025, 10:02 p.m. UTC

TLE line 0: 0 FALCON 9 R/B

TLE line 1: 1 37253U 10066K 25241.91844533 .00013722 00000-0 11775-2 0 9992

TLE line 2: 2 37253 34.5059 67.8077 4043888 47.6955 340.2265 7.32791008371194

Live tracking on map

Real-time ground track for satellite FALCON 9 R/B.

In-orbit conjunctions

There are no conjunctions computed for FALCON 9 R/B, at the moment. Check back to stay up to date, as we update our databases every day.

Go to all conjunctions

Associated space launch

SpaceX COTS Demo Flight 1 in 2010 was the unmanned first spaceflight of the SpaceX Dragon spacecraft, the Dragon C1, which orbited the Earth, and the second overall flight of the SpaceX Falcon 9. It was also the first demonstration flight for NASA's Commercial Orbital Transportation Services (COTS) program for which SpaceX was selected. The primary mission objectives were to test the orbital maneuvering and reentry of the Dragon capsule.

FALCON 9 R/B was lifted into orbit during the mission ‘Falcon 9 v1.0 | SpaceX COTS Demo Flight 1’, on board a Falcon 9 space rocket.

The launch took place on Dec. 8, 2010, 3:43 p.m. from Space Launch Complex 40.

For more information about the launch, click the button.

Launch to space Falcon 9 v1.0 | SpaceX COTS Demo Flight 1
Falcon 9 v1.0 | SpaceX COTS Demo Flight 1

Agency: N/A

Status: Launch Successful

Launch date: Dec. 8, 2010, 3:43 p.m. UTC

Rocket: Falcon 9

Launch pad: Space Launch Complex 40

Location: Cape Canaveral SFS, FL, USA

...

Latest news about this satellite

There are no fresh news available about this satellite. Check back as we update our databases every day.


Newsletter sign-up

Weekly statistics, charts and insights to help you stay on top of the space industry.